Spokane Felts, WA

10:30 AM PST on November 24, 2017 (GMT -0800)
Felts

Weather History for KSFF - January, 2013

Change the Weather History Date:

Thursday, January 17, 2013

  Actual Average Record
Temperature  
Mean Temperature 22 °F 32 °F  
Max Temperature 24 °F 37 °F 51 °F (2011)
Min Temperature 20 °F 26 °F 12 °F (2017)
Degree Days  
Heating Degree Days 43 33  
Month to date heating degree days 642 586  
Since 1 July heating degree days 2810 3255  
Cooling Degree Days 0 0  
Month to date cooling degree days 0 0  
Year to date cooling degree days 0 0  
Moisture  
Dew Point 19 °F    
Average Humidity 87    
Maximum Humidity 92    
Minimum Humidity 81    
Precipitation  
Precipitation T in 0.06 in 0.53 in (2015)
Month to date precipitation 0.92 1.14  
Year to date precipitation 0.92 1.14  
Sea Level Pressure  
Sea Level Pressure 30.52 in    
Wind  
Wind Speed 1 mph (SSW)    
Max Wind Speed 6 mph    
Max Gust Speed 7 mph    
Visibility 3 miles    
Events Fog , Snow    
T = Trace of Precipitation, MM = Missing Value Source: NWS Daily Summary

Daily Weather History Graph

Daily Weather History Graph

Search for Another Location

Airport or City:

Trip Planner

Search our weather history database for the weather conditions in past years. The results will help you decide how hot, cold, wet, or windy it might be!

Date:

Astronomy

Jan. 17, 2013 Rise Set
Actual Time 7:31 AM PST 4:28 PM PST
Civil Twilight 6:56 AM PST 5:02 PM PST
Nautical Twilight 6:18 AM PST 5:40 PM PST
Astronomical Twilight 5:41 AM PST 6:17 PM PST
Moon 10:08 AM PST (1/17) 11:58 PM PST (1/17)
Length of Visible Light 10h 05m
Length of Day
8h 56m
Waxing Crescent, 39% of the Moon is Illuminated
Jan 17
Waxing Crescent
Jan 18
First Quarter
Jan 26
Full
Feb 3
Last Quarter
Feb 9
New

Hourly Weather History & Observations

Time (PST) Temp. Windchill Dew Point Humidity Pressure Visibility Wind Dir Wind Speed Gust Speed Precip Events Conditions
12:53 AM 21.9 °F - 18.0 °F 85% 30.61 in 0.2 mi Calm Calm - N/A Fog Light Freezing Fog
1:53 AM 21.9 °F - 19.9 °F 92% 30.61 in 0.5 mi Calm Calm - N/A Fog Light Freezing Fog
2:53 AM 23.0 °F - 19.0 °F 85% 30.61 in 0.2 mi Calm Calm - N/A Fog Light Freezing Fog
3:53 AM 23.0 °F - 19.4 °F 86% 30.53 in 0.2 mi Calm Calm - N/A Fog Light Freezing Fog
4:11 AM 23.0 °F - 19.4 °F 86% 30.53 in 0.8 mi Calm Calm - N/A   Mist
4:18 AM 23.0 °F - 19.4 °F 86% 30.53 in 2.5 mi Calm Calm - N/A   Overcast
4:25 AM 21.2 °F - 19.4 °F 93% 30.53 in 5.0 mi Calm Calm - N/A   Overcast
4:43 AM 21.2 °F - 19.4 °F 93% 30.53 in 1.5 mi Calm Calm - N/A   Overcast
4:53 AM 23.0 °F - 19.9 °F 88% 30.60 in 0.8 mi Calm Calm - N/A   Overcast
5:07 AM 23.0 °F - 19.4 °F 86% 30.52 in 0.5 mi Calm Calm - N/A Fog Light Freezing Fog
5:27 AM 23.0 °F - 19.4 °F 86% 30.52 in 1.0 mi Calm Calm - N/A   Mist
5:53 AM 23.0 °F - 19.9 °F 88% 30.60 in 1.2 mi Calm Calm - N/A   Overcast
6:16 AM 23.0 °F 17.0 °F 19.4 °F 86% 30.52 in 3.0 mi ESE 4.6 mph - N/A   Overcast
6:40 AM 21.2 °F - 19.4 °F 93% 30.51 in 1.8 mi Calm Calm - N/A   Overcast
6:43 AM 23.0 °F - 19.4 °F 86% 30.52 in 3.0 mi Calm Calm - N/A   Overcast
6:50 AM 23.0 °F - 19.4 °F 86% 30.52 in 1.5 mi Calm Calm - N/A   Overcast
6:53 AM 23.0 °F - 19.9 °F 88% 30.60 in 1.5 mi Calm Calm - N/A   Overcast
7:53 AM 23.0 °F - 19.0 °F 85% 30.62 in 1.5 mi Calm Calm - N/A   Overcast
8:41 AM 21.2 °F - 19.4 °F 93% 30.54 in 1.5 mi Calm Calm - 0.00 in Snow Light Snow
8:53 AM 21.9 °F - 19.0 °F 89% 30.63 in 1.5 mi Calm Calm - 0.00 in   Overcast
9:00 AM 23.0 °F - 19.4 °F 86% 30.54 in 3.0 mi Calm Calm - N/A   Overcast
9:53 AM 23.0 °F - 19.0 °F 85% 30.63 in 4.0 mi Calm Calm - N/A   Overcast
10:11 AM 23.0 °F - 19.4 °F 86% 30.54 in 5.0 mi Calm Calm - N/A   Overcast
10:53 AM 23.0 °F 18.4 °F 19.9 °F 88% 30.61 in 5.0 mi SSE 3.5 mph - N/A   Overcast
11:53 AM 24.1 °F - 21.0 °F 88% 30.59 in 4.0 mi Calm Calm - N/A   Overcast
12:53 PM 24.1 °F - 21.0 °F 88% 30.56 in 4.0 mi Calm Calm - N/A   Overcast
1:53 PM 24.1 °F 19.7 °F 19.9 °F 84% 30.53 in 5.0 mi South 3.5 mph - N/A   Overcast
2:53 PM 24.1 °F - 19.9 °F 84% 30.52 in 5.0 mi Calm Calm - N/A   Overcast
3:53 PM 23.0 °F 18.4 °F 19.0 °F 85% 30.51 in 2.5 mi WSW 3.5 mph - N/A   Overcast
4:53 PM 24.1 °F - 19.0 °F 81% 30.50 in 3.0 mi Calm Calm - N/A   Haze
5:53 PM 23.0 °F - 19.0 °F 85% 30.50 in 4.0 mi Calm Calm - N/A   Mostly Cloudy
6:00 PM 21.2 °F - 19.4 °F 93% 30.41 in 5.0 mi Calm Calm - N/A   Clear
6:53 PM 21.0 °F - 18.0 °F 88% 30.48 in 6.0 mi Calm Calm - N/A   Clear
7:25 PM 21.2 °F 16.4 °F 17.6 °F 86% 30.39 in 5.0 mi NNW 3.5 mph - N/A   Scattered Clouds
7:34 PM 21.2 °F 16.4 °F 19.4 °F 93% 30.39 in 5.0 mi NW 3.5 mph - N/A   Mostly Cloudy
7:53 PM 23.0 °F - 19.0 °F 85% 30.46 in 3.0 mi Calm Calm - N/A   Overcast
8:39 PM 21.2 °F - 17.6 °F 86% 30.39 in 6.0 mi Calm Calm - N/A   Scattered Clouds
8:53 PM 21.0 °F - 17.1 °F 85% 30.47 in 6.0 mi Calm Calm - N/A   Clear
9:32 PM 21.2 °F - 17.6 °F 86% 30.38 in 4.0 mi Calm Calm - N/A   Partly Cloudy
9:53 PM 21.0 °F - 17.1 °F 85% 30.46 in 5.0 mi Calm Calm - N/A   Mostly Cloudy
10:53 PM 21.9 °F - 18.0 °F 85% 30.44 in 4.0 mi Calm Calm - N/A   Overcast
11:44 PM 19.4 °F 14.3 °F 15.8 °F 86% 30.36 in 4.0 mi SW 3.5 mph - N/A   Scattered Clouds
11:53 PM 19.9 °F 14.9 °F 16.0 °F 85% 30.44 in 5.0 mi SSW 3.5 mph - N/A   Partly Cloudy